Wind_Speed
16 14 14 14 15 14 17 16 11 15 14 9 8 7 9 8 5 7 6 1 4 7 8 9 9 9 9 8 8 9 9 9 9 9 9 9 9 9 9 8 9 9 10
12 13 13 13 12 13 19 19 11 12 12 12 14 11 11 9 10 7 10 7 10 5 9 9 9 9 9 8 9 9 9 10 10 11 11 10 11 11 13 11 10 12 11
16 15 15 14 13 12 12 16 12 8 14 13 15 15 13 12 12 9 10 6 10 7 9 10 10 9 9 9 9 9 10 10 10 11 12 12 13 13 14 14 14 14 13
16 17 17 14 16 14 13 15 13 14 15 15 14 15 14 14 14 12 11 10 9 9 9 14 9 9 10 10 11 11 11 12 12 13 13 14 15 15 15 15 15 15 15
23 18 19 20 16 15 17 16 15 17 16 14 14 15 14 14 14 15 13 12 12 9 10 11 10 8 11 14 15 15 14 14 14 14 14 15 15 15 16 17 17 17 18
23 22 20 14 18 17 17 17 16 16 15 15 15 16 16 16 15 15 15 15 13 13 13 11 11 12 16 14 15 18 20 18 17 16 16 16 16 15 16 17 18 18 20
23 22 21 20 18 19 19 16 14 15 16 15 14 15 14 15 16 17 17 16 16 18 19 12 14 17 16 18 17 16 16 19 20 20 21 20 20 20 19 19 19 20 21
23 25 25 21 22 25 19 14 19 17 18 17 16 14 8 15 19 20 19 18 18 18 14 17 19 16 17 16 17 17 17 18 19 19 21 22 24 24 24 23 22 21 22
25 25 25 24 21 22 23 22 22 23 21 20 21 14 6 8 10 19 21 19 19 16 17 18 18 17 17 15 18 19 21 24 23 21 22 23 23 24 24 24 24 25 24
29 28 28 27 25 22 24 24 25 30 26 15 15 21 21 9 3 4 5 7 17 10 16 18 17 16 16 17 19 22 23 23 22 22 24 25 25 25 25 25 25 25 26
32 32 31 30 28 27 23 23 25 26 24 22 19 15 13 15 11 10 6 11 14 12 16 13 15 15 15 16 16 18 20 21 22 21 23 25 25 28 28 27 27 26 26
31 34 33 33 32 30 28 26 26 24 24 22 21 20 17 14 16 16 11 14 15 19 19 18 17 12 15 16 18 22 24 25 24 24 26 24 23 23 25 26 26 24 25
31 33 36 34 34 33 30 28 27 28 27 26 25 23 23 23 19 15 12 14 14 22 21 16 19 23 12 13 17 20 13 16 19 23 25 23 22 22 24 26 27 26 24
29 30 38 38 34 31 32 29 28 28 27 27 26 27 24 23 25 23 21 19 11 18 18 11 17 8 12 14 17 16 15 19 22 22 22 22 23 23 23 21 22 22 22
29 29 31 35 35 35 32 31 30 27 27 26 25 25 26 25 19 20 22 22 17 9 11 18 5 9 11 15 14 11 14 19 21 18 19 20 18 19 19 19 18 19 20
36 29 23 30 32 32 33 32 30 29 28 28 26 25 24 25 24 23 21 20 20 18 10 21 18 14 15 13 14 14 16 17 18 18 18 18 18 17 18 17 18 19 18
30 36 22 30 29 31 32 33 33 28 28 27 27 26 25 24 22 20 21 20 19 19 14 19 18 17 12 11 13 14 15 15 15 16 14 14 14 14 15 16 16 16 16
27 32 43 34 30 29 31 34 32 30 29 26 27 28 25 24 25 24 20 22 22 21 20 17 18 16 9 11 13 13 14 14 13 13 13 13 14 15 15 15 16 16 16
22 23 30 42 34 40 32 30 30 28 28 27 27 27 25 23 23 22 22 22 21 21 19 19 18 15 17 10 11 11 13 13 13 16 16 14 13 14 15 15 16 16 16
19 17 17 18 26 39 33 29 24 26 27 27 28 29 26 26 25 23 21 20 19 19 19 20 16 15 16 9 10 14 14 14 12 12 12 11 12 13 15 17 17 17 17
14 11 10 10 14 22 15 20 21 23 26 27 26 27 26 28 25 25 21 20 20 20 20 19 18 15 10 10 15 15 13 13 9 11 13 13 12 12 14 18 19 19 17
8 8 11 13 17 17 15 17 20 18 23 26 26 26 28 24 26 24 25 25 21 22 21 15 17 14 8 14 17 14 16 13 10 14 14 13 15 16 14 14 17 16 13
11 10 11 12 12 13 19 17 20 23 23 24 24 24 24 24 26 24 26 27 27 18 20 18 18 16 5 11 16 15 15 11 12 8 10 12 11 16 15 18 19 20 19
13 13 11 10 12 13 14 12 14 15 19 23 23 23 24 25 21 22 20 20 22 19 21 22 19 20 12 14 14 14 13 12 13 15 15 11 13 15 15 17 19 19 18
12 12 12 13 13 11 9 11 13 11 14 13 12 16 21 19 18 20 18 18 16 18 20 21 19 23 22 22 21 14 14 13 14 16 11 12 15 18 15 15 15 20 20
9 9 8 8 9 10 11 12 11 10 13 15 13 11 11 13 11 11 15 15 12 16 14 13 17 18 19 28 28 23 20 16 14 11 16 13 12 12 14 18 16 12 17
Wind_Direction
190 184 196 206 194 186 191 205 211 193 203 214 239 230 232 228 264 261 151 213 282 260 237 228 226 231 236 241 245 246 245 240 248 263 257 250 245 258 262 255 251 254 255
188 194 200 208 203 197 195 195 208 187 200 205 224 221 231 233 217 246 264 291 255 251 231 227 229 234 243 250 254 255 257 255 251 254 262 261 260 256 259 263 254 258 259
207 203 204 212 214 208 196 199 206 205 204 207 218 214 230 232 240 227 254 283 248 261 226 225 230 233 239 254 263 264 264 266 264 262 262 262 264 264 258 261 265 262 265
206 199 200 202 207 195 209 206 201 209 217 213 216 219 217 237 225 240 257 259 270 260 238 218 220 236 246 252 258 264 266 272 274 271 270 268 267 269 268 268 267 263 260
207 207 216 206 192 202 201 216 211 216 209 221 216 218 226 233 233 238 238 247 261 267 248 227 234 248 263 261 260 261 262 268 270 273 274 273 272 273 273 271 268 265 262
202 208 215 218 194 217 216 209 215 216 229 216 235 217 220 228 235 242 244 239 245 246 246 244 243 262 261 256 262 264 262 262 266 270 270 270 271 270 270 272 273 271 268
203 206 216 212 203 215 220 207 210 225 220 231 229 245 237 231 241 242 239 239 237 238 246 240 248 264 275 257 256 263 267 263 261 260 263 268 268 269 270 270 270 271 272
208 207 213 213 206 220 222 212 206 218 224 221 224 234 230 232 235 233 236 249 248 249 254 248 243 238 251 260 258 260 261 267 268 261 259 262 265 267 268 270 270 270 270
210 213 213 220 215 211 217 217 213 214 232 214 214 236 219 242 243 212 213 231 245 244 254 258 251 237 231 246 260 264 265 264 267 267 262 259 261 261 263 266 267 267 269
209 212 215 216 226 215 212 213 211 213 230 233 210 218 252 316 276 253 265 279 252 241 258 256 258 257 247 245 254 258 263 269 267 262 266 265 261 259 259 261 264 265 266
209 212 213 216 216 222 223 216 212 211 217 227 225 219 231 237 240 256 267 267 262 246 251 227 245 245 242 244 252 258 265 259 264 267 268 270 268 256 256 259 260 264 263
210 216 215 212 216 217 222 220 221 218 217 217 221 221 218 204 213 219 239 261 281 275 265 254 225 241 265 277 266 263 256 265 263 264 268 268 268 260 254 253 255 265 261
220 210 213 215 214 216 219 220 222 223 217 217 215 217 223 231 225 224 229 249 253 256 256 257 263 259 253 265 269 269 267 260 260 269 272 267 266 263 257 255 254 262 254
219 220 208 211 216 220 217 218 222 224 224 223 221 220 227 226 213 220 224 230 247 257 254 234 258 256 260 264 282 280 284 281 277 274 271 267 263 265 264 260 253 250 244
234 221 207 208 212 214 218 215 218 221 224 224 226 226 224 233 232 222 235 242 247 266 270 275 248 258 258 256 266 284 281 280 279 276 273 274 269 264 256 255 245 237 241
234 231 221 211 215 217 218 216 217 221 225 228 226 227 229 232 234 233 236 241 246 245 257 258 273 272 244 248 261 277 273 274 274 273 277 268 260 256 251 245 240 245 250
238 236 224 249 223 219 222 223 219 220 218 224 229 233 231 232 238 237 239 241 238 231 242 255 261 261 206 236 269 267 265 266 267 270 267 262 255 252 246 246 250 255 255
237 233 221 234 241 244 228 227 222 223 222 226 225 230 230 230 232 236 239 238 236 231 234 243 254 261 250 248 255 254 261 263 270 273 266 259 248 248 251 251 251 252 256
248 242 232 200 217 235 235 227 225 225 229 223 226 229 233 232 238 232 232 237 232 229 231 235 246 247 246 228 231 241 250 253 255 258 259 257 252 248 242 241 246 252 256
261 251 244 248 216 228 227 229 227 228 228 229 228 227 228 227 231 229 230 229 235 230 225 233 235 240 239 238 263 263 246 243 247 246 251 251 262 263 254 247 245 247 249
247 256 264 263 251 242 245 230 230 234 231 231 235 227 226 231 228 225 223 223 224 223 233 221 230 225 227 236 247 251 263 263 241 246 251 244 237 241 255 253 249 250 247
234 245 251 253 244 236 238 236 230 236 238 233 231 229 232 225 231 228 226 227 225 223 242 224 235 238 223 237 253 254 246 250 256 251 240 255 256 241 254 235 256 254 248
221 228 238 241 247 242 239 233 236 237 242 242 236 236 231 227 226 227 231 232 231 228 227 227 234 247 263 235 252 260 262 262 255 264 221 262 268 239 252 254 247 247 252
214 220 227 231 238 241 242 233 236 236 242 242 241 233 233 231 229 220 224 221 223 227 226 229 237 255 246 256 257 252 252 258 262 262 259 261 272 263 254 242 249 241 249
223 224 230 235 236 234 233 227 226 233 246 248 239 235 233 219 213 217 213 218 216 229 237 242 251 260 265 261 254 248 252 241 255 256 229 248 268 269 267 242 252 242 250
225 223 218 229 239 245 239 241 220 231 242 242 238 225 199 181 208 212 220 216 220 234 250 256 254 260 263 266 257 246 244 251 247 267 252 230 251 258 269 257 250 232 226
Height
831 832 835 836 838 838 841 841 843 846 848 848 849 850 850 850 850 849 849 851 854 856 857 859 860 862 862 863 864 865 866 867 868 869 870 871 872 872 873 873 874 874 875
828 832 834 836 837 838 839 840 840 843 846 848 850 850 850 849 850 851 852 851 853 852 855 857 858 860 861 862 862 864 865 865 866 866 867 868 869 870 870 871 871 872 873
826 830 833 835 836 837 838 840 841 842 844 846 848 850 850 850 849 850 851 851 851 851 852 853 856 857 858 860 860 861 862 863 864 864 864 865 866 867 868 869 869 869 870
824 828 828 831 832 835 838 839 841 843 843 843 845 846 848 848 848 849 849 849 851 851 850 850 851 854 856 857 858 858 859 861 862 862 862 862 862 863 865 866 866 867 866
821 823 824 826 829 831 833 836 837 840 840 841 842 844 845 845 845 845 847 847 847 848 847 849 851 851 853 854 855 855 856 857 858 858 859 859 859 860 860 861 862 863 863
817 821 821 822 825 828 828 831 833 835 837 839 840 839 841 842 842 842 841 842 843 845 846 847 847 848 848 848 849 850 851 852 853 854 855 855 855 856 856 857 858 858 858
813 817 818 820 823 824 826 828 832 835 836 837 837 837 836 838 838 838 837 837 838 839 841 842 844 844 844 843 845 846 846 846 847 849 850 851 852 852 852 852 853 853 854
809 812 814 815 818 821 822 825 829 831 834 834 834 833 831 832 832 833 834 834 833 834 835 837 838 839 841 841 841 841 841 842 843 843 844 845 846 846 847 847 847 848 848
804 807 810 812 813 816 818 820 826 826 826 828 830 829 827 825 820 823 827 828 827 828 830 832 833 833 834 836 837 837 836 836 837 838 838 839 839 840 840 841 841 841 842
795 800 804 806 809 811 813 816 819 820 823 823 823 826 824 825 823 823 824 825 807 824 826 827 827 829 830 831 831 832 832 832 833 833 833 834 833 833 834 834 835 835 835
789 791 795 799 802 806 807 809 812 814 816 819 820 822 822 824 827 829 827 822 820 820 822 822 824 822 824 825 826 826 826 826 826 827 828 827 826 826 827 827 828 828 829
780 783 786 789 793 796 800 802 805 808 810 811 814 817 818 819 819 821 822 820 820 818 816 815 815 817 819 819 820 820 820 820 821 821 821 821 820 820 820 820 821 822 823
770 771 777 780 783 786 790 794 798 801 803 805 806 810 814 816 816 816 819 818 815 813 811 811 812 812 813 816 817 815 815 815 816 815 814 814 814 814 814 814 814 816 816
760 764 765 770 775 780 782 786 790 794 796 798 800 803 805 806 807 810 809 810 808 804 804 805 808 809 810 811 812 811 812 812 811 810 809 808 808 808 808 808 808 810 811
753 753 757 763 766 770 775 778 782 785 789 792 794 797 799 800 800 803 804 802 801 804 800 801 803 804 806 808 808 808 809 808 806 806 804 804 803 802 803 804 804 805 807
747 746 751 757 765 765 768 770 773 778 782 785 789 791 794 795 796 799 800 799 801 801 800 799 799 800 802 803 805 805 805 804 802 801 799 798 798 798 799 800 801 802 804
744 740 745 755 759 761 764 767 766 768 773 778 782 785 788 791 793 794 796 797 796 798 798 795 796 796 797 799 800 801 800 800 798 797 795 793 794 795 796 797 799 800 800
739 735 738 748 755 757 759 764 762 761 764 770 776 779 781 784 785 787 789 790 791 793 794 793 793 792 791 792 794 796 796 796 795 793 792 791 790 791 793 794 795 795 796
728 733 737 730 725 744 754 757 757 755 757 761 767 771 774 777 779 781 782 784 785 787 789 789 787 787 787 787 789 791 792 792 791 790 789 789 788 788 788 789 790 791 792
716 726 727 722 729 737 739 747 747 748 751 754 758 762 765 768 770 773 775 777 780 781 782 783 780 780 782 785 787 788 788 787 786 787 786 786 786 786 786 786 785 785 786
711 712 713 717 720 725 714 734 737 742 745 747 751 754 757 761 762 766 769 770 774 777 775 776 776 770 776 785 784 782 784 781 781 783 782 782 782 782 783 782 782 781 782
707 707 710 713 718 720 722 727 731 736 739 742 744 746 751 752 756 758 760 764 768 769 773 771 775 770 767 779 781 780 780 779 778 776 778 777 778 778 778 779 779 778 779
708 708 711 713 715 716 720 723 726 730 734 736 738 742 745 746 749 752 755 758 762 763 766 769 770 767 764 770 778 777 777 777 776 774 776 773 772 773 773 774 774 775 775
707 708 710 712 715 716 717 719 723 726 728 729 733 735 739 741 743 747 750 752 755 758 759 763 766 767 761 766 773 774 774 774 774 772 771 770 769 766 766 767 767 769 771
704 706 709 710 712 713 715 718 720 722 724 726 727 730 732 734 736 741 745 748 751 752 754 757 759 761 762 764 769 770 770 771 768 767 766 766 766 764 763 762 762 763 765
702 705 706 709 710 711 713 715 716 719 723 725 726 728 731 732 735 741 744 745 746 748 751 752 755 756 758 762 761 763 765 766 766 764 762 764 762 762 760 757 758 757 761